Regional Weather Roundup
Issued by NWS

Home | Current Version | Previous Version | Graphics & Text | Print | Product List | Glossary On
Versions: 1 2 3 4 5 6 7 8 9 10 11 12 13 14 15 16 17 18 19 20 21 22 23 24 25 26 27 28 29 30 31 32 33 34 35 36 37 38 39 40 41 42 43 44 45 46 47 48 49 50
000
ASUS43 KLMK 261402
RWRKY
KENTUCKY REGIONAL WEATHER ROUNDUP
NATIONAL WEATHER SERVICE LOUISVILLE KY
1000 AM EDT FRI AUG 26 2016

NOTE "FAIR" INDICATES FEW OR NO CLOUDS BELOW 12,000 FEET
WITH NO SIGNIFICANT WEATHER AND/OR OBSTRUCTIONS TO VISIBILITY.

KYZ001>023-026-027-061>063-070>075-261500-
WESTERN AND SOUTH CENTRAL KENTUCKY

CITY           SKY/WX    TMP DP  RH WIND       PRES   REMARKS
PADUCAH        PTSUNNY   84  76  76 CALM      30.12R HX  93
HENDERSON      SUNNY     82  75  78 CALM      30.11S
OWENSBORO      MOSUNNY   86  77  74 CALM      30.13S HX  97
HOPKINSVILLE   MOSUNNY   83  77  81 VRB2      30.13R HX  91
BOWLING GREEN  SUNNY     84  74  71 E6        30.14R HX  91
GLASGOW        MOSUNNY   83  77  81 CALM      30.15R HX  92
$$

KYZ024-025-028>034-038-045-046-053-261500-
NORTH CENTRAL KENTUCKY

CITY           SKY/WX    TMP DP  RH WIND       PRES   REMARKS
LOUISVILLE/SDF PTSUNNY   82  73  74 CALM      30.14S
LOUISVILLE/LOU MOSUNNY   82  71  69 CALM      30.15R
FORT KNOX      MOSUNNY   80  74  80 CALM      30.13S
$$

KYZ035>037-039>044-047>052-055>060-089>105-261500-
NORTHEAST KENTUCKY

CITY           SKY/WX    TMP DP  RH WIND       PRES   REMARKS
LEXINGTON      SUNNY     83  71  67 CALM      30.17R
COVINGTON      MOSUNNY   82  74  76 CALM      30.16S
FRANKFORT      SUNNY     82  72  71 CALM      30.15S
$$

KYZ054-064>069-076>088-106>120-261500-
SOUTHEAST KENTUCKY

CITY           SKY/WX    TMP DP  RH WIND       PRES   REMARKS
JACKSON        SUNNY     78  73  84 CALM      30.19S
LONDON         SUNNY     79  72  79 SE3       30.18S
SOMERSET       SUNNY     79  75  89 CALM      30.18R
MIDDLESBORO    CLOUDY    72  72 100 CALM      30.21R
MONTICELLO     SUNNY    N/A N/A N/A NW9       30.19R
$$





USA.gov is the U.S. government's official web portal to all federal, state and local government web resources and services.